| time (UTC) | temp C | wind direction | speed KPH | gust KPH | rain 1hr cm | rain 24hr cm | rain mn cm | humidity % | barometer mb |
| 20260504081800 | 0 | 355 | 0.0 | 0.0 | 0.00 | 0.00 | 0.00 | 93 | 1009.4 |
| 20260504081256 | 0 | 355 | 0.0 | 0.0 | 0.00 | 0.00 | 0.00 | 92 | 1009.5 |
| 20260504080753 | 1 | 355 | 0.0 | 0.0 | 0.00 | 0.00 | 0.00 | 92 | 1009.3 |
| 20260504080250 | 0 | 354 | 0.0 | 0.0 | 0.00 | 0.00 | 0.00 | 92 | 1009.1 |
| 20260504070217 | 1 | 356 | 0.0 | 0.0 | 0.00 | 0.00 | 0.00 | 89 | 1009.3 |
| 20260504060138 | 1 | 332 | 0.0 | 0.0 | 0.00 | 0.00 | 0.00 | 89 | 1009.4 |
| 20260504050606 | 2 | 330 | 0.0 | 0.0 | 0.00 | 0.00 | 0.00 | 87 | 1009.2 |
| 20260504050103 | 2 | 335 | 0.0 | 0.0 | 0.00 | 0.00 | 0.00 | 87 | 1009.3 |
| 20260504045600 | 2 | 337 | 0.0 | 0.0 | 0.00 | 0.00 | 0.00 | 87 | 1009.5 |
| 20260504045055 | 2 | 337 | 0.0 | 0.0 | 0.00 | 0.00 | 0.00 | 87 | 1009.3 |
| 20260504044553 | 2 | 328 | 0.0 | 0.0 | 0.00 | 0.00 | 0.00 | 86 | 1009.4 |
| 20260504044049 | 2 | 328 | 0.0 | 0.0 | 0.00 | 0.00 | 0.00 | 86 | 1009.3 |
| 20260504043547 | 1 | 335 | 0.0 | 0.0 | 0.00 | 0.00 | 0.00 | 87 | 1009.4 |
| 20260504043044 | 1 | 334 | 0.0 | 0.0 | 0.00 | 0.00 | 0.00 | 87 | 1009.3 |
| 20260504042541 | 2 | 339 | 0.0 | 0.0 | 0.00 | 0.00 | 0.00 | 87 | 1009.6 |
| 20260504042038 | 2 | 339 | 0.0 | 0.0 | 0.00 | 0.00 | 0.00 | 86 | 1009.5 |
| 20260504041533 | 2 | 343 | 0.0 | 0.0 | 0.00 | 0.00 | 0.00 | 86 | 1009.5 |
| 20260504041030 | 2 | 325 | 0.0 | 0.0 | 0.00 | 0.00 | 0.00 | 85 | 1009.2 |
| 20260504040527 | 2 | 325 | 0.0 | 0.0 | 0.00 | 0.00 | 0.00 | 85 | 1009.3 |
| 20260504040024 | 2 | 325 | 0.0 | 0.0 | 0.00 | 0.00 | 0.00 | 85 | 1009.2 |
| 20260504035521 | 2 | 325 | 0.0 | 0.0 | 0.00 | 0.00 | 0.00 | 84 | 1009.3 |
| 20260504035017 | 2 | 325 | 0.0 | 0.0 | 0.00 | 0.00 | 0.00 | 83 | 1009.1 |
| 20260504034515 | 2 | 325 | 0.0 | 0.0 | 0.00 | 0.00 | 0.00 | 83 | 1009.0 |
| 20260504034012 | 2 | 325 | 0.0 | 0.0 | 0.00 | 0.00 | 0.00 | 84 | 1009.0 |
| 20260504033510 | 2 | 325 | 0.0 | 0.0 | 0.00 | 0.00 | 0.00 | 84 | 1008.8 |
| 20260504033007 | 3 | 325 | 0.0 | 0.0 | 0.00 | 0.00 | 0.00 | 83 | 1008.9 |
| 20260504032503 | 3 | 325 | 0.0 | 0.0 | 0.00 | 0.00 | 0.00 | 83 | 1009.0 |
| 20260504032000 | 3 | 325 | 0.0 | 0.0 | 0.00 | 0.00 | 0.00 | 82 | 1009.0 |
| 20260504031456 | 3 | 325 | 0.0 | 0.0 | 0.00 | 0.00 | 0.00 | 82 | 1008.7 |
| 20260504030954 | 3 | 325 | 0.0 | 0.0 | 0.00 | 0.00 | 0.00 | 80 | 1009.0 |
| 20260504030451 | 3 | 325 | 0.0 | 0.0 | 0.00 | 0.00 | 0.00 | 80 | 1008.7 |
| 20260504025946 | 3 | 325 | 0.0 | 0.0 | 0.00 | 0.00 | 0.00 | 81 | 1008.7 |
| 20260504025444 | 3 | 325 | 0.0 | 0.0 | 0.00 | 0.00 | 0.00 | 80 | 1008.9 |
| 20260504024941 | 3 | 325 | 0.0 | 0.0 | 0.00 | 0.00 | 0.00 | 79 | 1008.9 |
| 20260504024438 | 3 | 325 | 0.0 | 0.0 | 0.00 | 0.00 | 0.00 | 78 | 1008.9 |
| 20260504023935 | 4 | 325 | 0.0 | 0.0 | 0.00 | 0.00 | 0.00 | 77 | 1009.0 |
| 20260504023431 | 4 | 325 | 0.0 | 0.0 | 0.00 | 0.00 | 0.00 | 76 | 1008.9 |
| 20260504022927 | 4 | 325 | 0.0 | 0.0 | 0.00 | 0.00 | 0.00 | 77 | 1008.8 |
| 20260504022423 | 5 | 325 | 0.0 | 0.0 | 0.00 | 0.00 | 0.00 | 76 | 1008.9 |
| 20260504021920 | 5 | 327 | 0.0 | 0.0 | 0.00 | 0.00 | 0.00 | 75 | 1008.7 |
| 20260504021417 | 5 | 321 | 0.0 | 0.0 | 0.00 | 0.00 | 0.00 | 75 | 1008.8 |
| 20260504020915 | 5 | 315 | 0.0 | 0.0 | 0.00 | 0.00 | 0.00 | 75 | 1009.0 |
| 20260504020411 | 5 | 335 | 0.0 | 0.0 | 0.00 | 0.00 | 0.00 | 74 | 1008.9 |
| 20260504015908 | 5 | 337 | 0.0 | 0.0 | 0.00 | 0.00 | 0.00 | 73 | 1009.0 |
| 20260504015404 | 5 | 334 | 0.0 | 0.0 | 0.00 | 0.00 | 0.00 | 74 | 1008.6 |
| 20260504014900 | 5 | 328 | 0.0 | 0.0 | 0.00 | 0.00 | 0.00 | 72 | 1009.0 |
| 20260504014356 | 5 | 324 | 0.0 | 0.0 | 0.00 | 0.00 | 0.00 | 72 | 1008.9 |
| 20260504013853 | 5 | 286 | 0.0 | 0.0 | 0.00 | 0.00 | 0.00 | 70 | 1008.9 |
| 20260504013351 | 6 | 322 | 0.0 | 0.0 | 0.00 | 0.00 | 0.00 | 69 | 1008.8 |
| 20260504012847 | 6 | 323 | 0.0 | 0.0 | 0.00 | 0.00 | 0.00 | 68 | 1008.7 |
| 20260504012345 | 6 | 322 | 0.0 | 0.0 | 0.00 | 0.00 | 0.00 | 67 | 1008.9 |
| 20260504011843 | 6 | 324 | 0.0 | 0.0 | 0.00 | 0.00 | 0.00 | 66 | 1008.8 |
| 20260504011339 | 6 | 322 | 0.0 | 0.0 | 0.00 | 0.00 | 0.00 | 64 | 1008.9 |
| 20260504010835 | 7 | 324 | 0.0 | 0.0 | 0.00 | 0.00 | 0.00 | 64 | 1008.7 |
| 20260504010331 | 7 | 312 | 0.0 | 0.0 | 0.00 | 0.00 | 0.00 | 62 | 1008.6 |
| 20260504005828 | 7 | 338 | 0.0 | 0.0 | 0.00 | 0.00 | 0.00 | 61 | 1008.4 |
| 20260504005324 | 8 | 317 | 0.0 | 0.0 | 0.00 | 0.00 | 0.00 | 59 | 1008.8 |
| 20260504004822 | 8 | 317 | 0.0 | 0.0 | 0.00 | 0.00 | 0.00 | 55 | 1008.4 |
| 20260504004320 | 9 | 303 | 0.0 | 0.0 | 0.00 | 0.00 | 0.00 | 53 | 1008.3 |
| 20260504003816 | 10 | 303 | 0.0 | 0.0 | 0.00 | 0.00 | 0.00 | 50 | 1008.4 |
| 20260504003313 | 10 | 291 | 1.6 | 1.6 | 0.00 | 0.00 | 0.00 | 48 | 1008.3 |
| 20260504002809 | 10 | 271 | 3.2 | 4.8 | 0.00 | 0.00 | 0.00 | 47 | 1008.2 |
| 20260504002306 | 10 | 320 | 0.0 | 0.0 | 0.00 | 0.00 | 0.00 | 48 | 1008.3 |
| 20260504001804 | 11 | 291 | 1.6 | 3.2 | 0.00 | 0.00 | 0.00 | 46 | 1008.3 |
| 20260504001301 | 11 | 275 | 3.2 | 3.2 | 0.00 | 0.00 | 0.00 | 45 | 1007.9 |
| 20260504000758 | 11 | 296 | 6.4 | 9.7 | 0.00 | 0.00 | 0.00 | 45 | 1007.7 |
| 20260504000254 | 11 | 210 | 9.7 | 14.5 | 0.00 | 0.00 | 0.00 | 44 | 1008.0 |
| 20260503235753 | 11 | 306 | 1.6 | 1.6 | 0.00 | 0.00 | 0.00 | 44 | 1008.0 |
| 20260503235250 | 11 | 218 | 4.8 | 6.4 | 0.00 | 0.00 | 0.00 | 43 | 1008.1 |
| 20260503234747 | 11 | 345 | 3.2 | 6.4 | 0.00 | 0.00 | 0.00 | 43 | 1007.9 |
| 20260503234245 | 12 | 295 | 3.2 | 4.8 | 0.00 | 0.00 | 0.00 | 43 | 1007.8 |
| 20260503233742 | 12 | 274 | 3.2 | 3.2 | 0.00 | 0.00 | 0.00 | 43 | 1007.8 |
| 20260503233237 | 12 | 325 | 8.0 | 11.3 | 0.00 | 0.00 | 0.00 | 42 | 1007.8 |
| 20260503232729 | 12 | 228 | 4.8 | 6.4 | 0.00 | 0.00 | 0.00 | 42 | 1007.8 |
| 20260503232226 | 12 | 259 | 4.8 | 4.8 | 0.00 | 0.00 | 0.00 | 42 | 1007.8 |
| 20260503231725 | 12 | 229 | 8.0 | 11.3 | 0.00 | 0.00 | 0.00 | 40 | 1007.5 |
| 20260503231221 | 12 | 271 | 9.7 | 12.9 | 0.00 | 0.00 | 0.00 | 41 | 1007.8 |
| 20260503230717 | 12 | 297 | 4.8 | 6.4 | 0.00 | 0.00 | 0.00 | 41 | 1007.8 |
| 20260503230214 | 12 | 264 | 14.5 | 16.1 | 0.00 | 0.00 | 0.00 | 40 | 1007.5 |
| 20260503225712 | 12 | 279 | 8.0 | 11.3 | 0.00 | 0.00 | 0.00 | 40 | 1007.7 |
| 20260503225211 | 12 | 315 | 4.8 | 6.4 | 0.00 | 0.00 | 0.00 | 40 | 1007.6 |
| 20260503224709 | 12 | 270 | 4.8 | 4.8 | 0.00 | 0.00 | 0.00 | 41 | 1007.6 |
| 20260503224207 | 13 | 300 | 16.1 | 24.1 | 0.00 | 0.00 | 0.00 | 39 | 1007.4 |
| 20260503223704 | 13 | 217 | 4.8 | 6.4 | 0.00 | 0.00 | 0.00 | 39 | 1007.5 |
| 20260503223201 | 13 | 241 | 11.3 | 12.9 | 0.00 | 0.00 | 0.00 | 40 | 1007.4 |
| 20260503222658 | 13 | 219 | 17.7 | 25.7 | 0.00 | 0.00 | 0.00 | 38 | 1007.3 |
| 20260503222155 | 13 | 277 | 11.3 | 20.9 | 0.00 | 0.00 | 0.00 | 40 | 1007.6 |
| 20260503221654 | 13 | 271 | 6.4 | 6.4 | 0.00 | 0.00 | 0.00 | 39 | 1007.3 |
| 20260503221151 | 13 | 277 | 3.2 | 4.8 | 0.00 | 0.00 | 0.00 | 40 | 1007.5 |
| 20260503220647 | 12 | 253 | 8.0 | 12.9 | 0.00 | 0.00 | 0.00 | 40 | 1007.5 |
| 20260503220144 | 13 | 270 | 12.9 | 14.5 | 0.00 | 0.00 | 0.00 | 40 | 1007.5 |
| 20260503215642 | 13 | 276 | 6.4 | 6.4 | 0.00 | 0.00 | 0.00 | 40 | 1007.3 |
| 20260503215138 | 13 | 261 | 6.4 | 9.7 | 0.00 | 0.00 | 0.00 | 39 | 1007.5 |
| 20260503214637 | 13 | 290 | 8.0 | 11.3 | 0.00 | 0.00 | 0.00 | 40 | 1007.5 |
| 20260503214132 | 12 | 306 | 6.4 | 9.7 | 0.00 | 0.00 | 0.00 | 40 | 1007.7 |
| 20260503213626 | 13 | 272 | 3.2 | 3.2 | 0.00 | 0.00 | 0.00 | 40 | 1007.6 |
| 20260503213122 | 12 | 279 | 8.0 | 11.3 | 0.00 | 0.00 | 0.00 | 41 | 1007.3 |
| 20260503212619 | 12 | 274 | 6.4 | 6.4 | 0.00 | 0.00 | 0.00 | 40 | 1007.5 |
| 20260503212116 | 12 | 287 | 3.2 | 6.4 | 0.00 | 0.00 | 0.00 | 41 | 1007.4 |
| 20260503211609 | 12 | 308 | 11.3 | 17.7 | 0.00 | 0.00 | 0.00 | 40 | 1007.5 |
| 20260503211104 | 12 | 177 | 6.4 | 9.7 | 0.00 | 0.00 | 0.00 | 40 | 1007.3 |
| 20260503210601 | 12 | 298 | 8.0 | 11.3 | 0.00 | 0.00 | 0.00 | 39 | 1007.2 |
| 20260503210056 | 12 | 216 | 11.3 | 14.5 | 0.00 | 0.00 | 0.00 | 38 | 1007.2 |
| 20260503205553 | 12 | 341 | 14.5 | 20.9 | 0.00 | 0.00 | 0.00 | 39 | 1007.2 |
| 20260503205049 | 12 | 326 | 6.4 | 9.7 | 0.00 | 0.00 | 0.00 | 40 | 1007.2 |
| 20260503204547 | 12 | 301 | 8.0 | 11.3 | 0.00 | 0.00 | 0.00 | 40 | 1007.2 |
| 20260503204044 | 12 | 272 | 8.0 | 12.9 | 0.00 | 0.00 | 0.00 | 40 | 1007.1 |
| 20260503203541 | 13 | 294 | 8.0 | 11.3 | 0.00 | 0.00 | 0.00 | 39 | 1007.2 |
| 20260503203038 | 12 | 324 | 9.7 | 11.3 | 0.00 | 0.00 | 0.00 | 40 | 1007.3 |
| 20260503202536 | 12 | 292 | 3.2 | 3.2 | 0.00 | 0.00 | 0.00 | 39 | 1007.6 |
| 20260503202034 | 13 | 325 | 3.2 | 3.2 | 0.00 | 0.00 | 0.00 | 41 | 1007.4 |
| 20260503201532 | 12 | 279 | 1.6 | 3.2 | 0.00 | 0.00 | 0.00 | 41 | 1007.5 |
| 20260503201028 | 13 | 286 | 3.2 | 4.8 | 0.00 | 0.00 | 0.00 | 39 | 1007.1 |
| 20260503200524 | 12 | 296 | 3.2 | 4.8 | 0.00 | 0.00 | 0.00 | 40 | 1007.6 |
| 20260503200021 | 12 | 292 | 11.3 | 12.9 | 0.00 | 0.00 | 0.00 | 38 | 1007.6 |
| 20260503195519 | 12 | 174 | 9.7 | 12.9 | 0.00 | 0.00 | 0.00 | 39 | 1007.6 |
| 20260503195015 | 12 | 295 | 12.9 | 16.1 | 0.00 | 0.00 | 0.00 | 40 | 1007.7 |
| 20260503194513 | 12 | 310 | 6.4 | 9.7 | 0.00 | 0.00 | 0.00 | 39 | 1007.8 |
| 20260503194012 | 12 | 286 | 8.0 | 11.3 | 0.00 | 0.00 | 0.00 | 40 | 1007.7 |
| 20260503193509 | 12 | 299 | 8.0 | 11.3 | 0.00 | 0.00 | 0.00 | 40 | 1008.0 |
| 20260503193004 | 12 | 274 | 8.0 | 11.3 | 0.00 | 0.00 | 0.00 | 40 | 1007.8 |
| 20260503192501 | 12 | 224 | 11.3 | 17.7 | 0.00 | 0.00 | 0.00 | 38 | 1008.0 |
| 20260503191956 | 12 | 32 | 14.5 | 20.9 | 0.00 | 0.00 | 0.00 | 37 | 1008.3 |
| 20260503191454 | 12 | 293 | 9.7 | 12.9 | 0.00 | 0.00 | 0.00 | 38 | 1007.9 |
| 20260503190950 | 12 | 288 | 3.2 | 4.8 | 0.00 | 0.00 | 0.00 | 41 | 1008.2 |
| 20260503190447 | 12 | 328 | 14.5 | 20.9 | 0.00 | 0.00 | 0.00 | 39 | 1008.1 |
| 20260503185944 | 12 | 199 | 11.3 | 14.5 | 0.00 | 0.00 | 0.00 | 40 | 1008.1 |
| 20260503185441 | 11 | 262 | 6.4 | 9.7 | 0.00 | 0.00 | 0.00 | 40 | 1008.2 |
| 20260503184940 | 11 | 334 | 14.5 | 17.7 | 0.00 | 0.00 | 0.00 | 40 | 1008.4 |
| 20260503184437 | 11 | 290 | 11.3 | 16.1 | 0.00 | 0.00 | 0.00 | 40 | 1008.3 |
| 20260503183933 | 11 | 274 | 6.4 | 9.7 | 0.00 | 0.00 | 0.00 | 40 | 1008.6 |
| 20260503183430 | 11 | 288 | 6.4 | 9.7 | 0.00 | 0.00 | 0.00 | 42 | 1008.8 |
| 20260503182927 | 10 | 338 | 9.7 | 17.7 | 0.00 | 0.00 | 0.00 | 42 | 1008.6 |
| 20260503182426 | 10 | 323 | 16.1 | 20.9 | 0.00 | 0.00 | 0.00 | 41 | 1008.8 |
| 20260503181923 | 11 | 294 | 6.4 | 6.4 | 0.00 | 0.00 | 0.00 | 44 | 1008.7 |
| 20260503181420 | 10 | 312 | 11.3 | 14.5 | 0.00 | 0.00 | 0.00 | 43 | 1008.7 |
| 20260503180916 | 10 | 271 | 9.7 | 11.3 | 0.00 | 0.00 | 0.00 | 44 | 1008.7 |
| 20260503180414 | 10 | 249 | 6.4 | 11.3 | 0.00 | 0.00 | 0.00 | 44 | 1008.8 |
| 20260503175910 | 10 | 318 | 16.1 | 20.9 | 0.00 | 0.00 | 0.00 | 43 | 1008.9 |
| 20260503175409 | 10 | 283 | 3.2 | 6.4 | 0.00 | 0.00 | 0.00 | 45 | 1008.7 |
| 20260503174904 | 10 | 286 | 8.0 | 12.9 | 0.00 | 0.00 | 0.00 | 44 | 1008.9 |
| 20260503174402 | 9 | 292 | 6.4 | 9.7 | 0.00 | 0.00 | 0.00 | 42 | 1008.8 |
| 20260503173857 | 10 | 268 | 9.7 | 12.9 | 0.00 | 0.00 | 0.00 | 43 | 1009.0 |
| 20260503173354 | 10 | 196 | 12.9 | 14.5 | 0.00 | 0.00 | 0.00 | 44 | 1008.9 |
| 20260503172850 | 10 | 272 | 4.8 | 14.5 | 0.00 | 0.00 | 0.00 | 44 | 1009.0 |
| 20260503172348 | 10 | 334 | 6.4 | 6.4 | 0.00 | 0.00 | 0.00 | 47 | 1009.1 |
| 20260503171844 | 10 | 352 | 24.1 | 29.0 | 0.00 | 0.00 | 0.00 | 44 | 1008.7 |
| 20260503171341 | 9 | 303 | 4.8 | 4.8 | 0.00 | 0.00 | 0.00 | 47 | 1009.2 |
| 20260503170838 | 9 | 286 | 11.3 | 14.5 | 0.00 | 0.00 | 0.00 | 46 | 1009.1 |
| 20260503170335 | 8 | 294 | 8.0 | 14.5 | 0.00 | 0.00 | 0.00 | 47 | 1009.2 |
| 20260503150727 | 7 | 281 | 8.0 | 12.9 | 0.00 | 0.00 | 0.00 | 51 | 1009.7 |
| 20260503150223 | 7 | 314 | 12.9 | 20.9 | 0.00 | 0.00 | 0.00 | 50 | 1009.9 |
| 20260503140147 | 5 | 281 | 3.2 | 4.8 | 0.00 | 0.00 | 0.00 | 60 | 1009.8 |
| 20260503131117 | 4 | 286 | 9.7 | 20.9 | 0.00 | 0.00 | 0.00 | 68 | 1010.0 |
| 20260503130615 | 5 | 273 | 6.4 | 9.7 | 0.00 | 0.00 | 0.00 | 69 | 1010.0 |
| 20260503130112 | 4 | 246 | 14.5 | 17.7 | 0.00 | 0.00 | 0.00 | 70 | 1009.9 |
| 20260503110505 | 2 | 282 | 3.2 | 3.2 | 0.00 | 0.00 | 0.00 | 78 | 1009.3 |